SL-12 R/B(2), 13610

Orbit data source: Space-Track

SL-12 R/B(2), 13610 is space debris in MEO originally from a launch on Tue, 12 Oct 1982 UTC launched from the Tyuratam Missile And Space Complex (TTMTR). Debris objects in space refer to the collection of defunct objects orbiting the Earth. Examples of debris include non-operational satellites, rocket bodies, and fragments generated from explosions, collisions, or faulty payload assembly.

Loading next visibility...
Identifier
13610, 1982-100H
Orbit
MEO
Country
Flag of CISCIS
Related business
Manufacturer
NPO Energiya
Mission
Spacecraft
Bus & Motor
BLOK DM, Unknown motor
Mass
2,440 kg wet, 2,440 kg dry
Launch date (UTC)
1982-10-12 (44 years ago)
Launch vehicle
Unknown
Launch site
Tyuratam Missile And Space Complex (TTMTR)
Object type
Payload
Rocket body
Debris
Shape & HBR
Unknown
Radar Cross Section
Large (>1 m²)

Expand to show TLE details & history
Last TLE update: 1 week ago

TLE from 1 week ago
0 SL-12 R/B(2)
1 13610U 82100H   26157.40679747 -.00000020  00000-0  00000-0 0  9990
2 13610  64.8780  66.1024 0007017 214.2129 327.4738  2.14005620341553
Epoch: 2026-06-06T09:45Z
TLE epoch observation values (Epoch: 2026-06-06T09:45:47.301Z)
Latitude
-1.51592°
Longitude
-154.44915°
Altitude
19,043.74 km
Speed
3.961 km/s
True Right ascension
16h 27m 16s
True Declination
-1° 30' 48"
Sunlit
Object was in daylight at epoch
Visualization orbit readout
Latitude
Unknown
Longitude
Unknown
Altitude
Unknown
Speed
Unknown
Apparent Right ascension
Unknown
Apparent Declination
Unknown
Sunlit
N/A
Visualization observer readout
Local Sidereal Time
19:59:05
Azimuth
Unknown
Elevation
Unknown
Doppler factor
Unknown
Orbital elements
Apogee altitude
19,075.499 km
Perigee altitude
19,039.803 km
Semi-major axis
25,435.788 km
Eccentricity
0.0007
Inclination
64.878°
RAAN
66.1024°
Arg. of periapsis
214.2129°
True anomaly
327.43053°
Mean anomaly
327.4738°
Eccentric anomaly
327.45217°
Mean motion
0.53503 °/min
Orbital period
672.86 mins
BSTAR
0
Loading maneuver chart data...
Computing Atmospheric mass density...
Loading historical data...
Loading historical data...
Loading historical data...
Loading historical data...
Loading historical data...
Loading historical data...
Loading historical data...

Documentation

Showing up to 5 results
|